When you browse on this site, cookies collect data to enhance your experience and personalize the content and advertising you see.
Visit our Privacy Policy to learn more. By continuing to use the site, you agree to this use of cookies and data.
  • Em Portugal
  • Lista de países
  • Para 7 dias
  • Temperatura da água
  • Mapa do tempo
  • Widgets de tempo
  • user-avatar
    Iniciar Sessão

    Previsão horária em Oleiros

    Hoje, 14 Novembro, Quinta-feira

    Tempo Temperatura Precipitação Vento Pressão Humidade
    00:00 +6°C° 0.6 mm 8 m/s 749 mmHg 91%
    01:00 +5°C° 0.6 mm 7 m/s 749 mmHg 90%
    02:00 +5°C° 0.6 mm 6 m/s 748 mmHg 89%
    03:00 +5°C° 0.7 mm 7 m/s 748 mmHg 90%
    04:00 +5°C° 0.7 mm 7 m/s 747 mmHg 90%
    05:00 +5°C° 0 mm 6 m/s 746 mmHg 91%
    06:00 +5°C° 1.4 mm 6 m/s 746 mmHg 92%
    07:00 +7°C° 1.4 mm 6 m/s 745 mmHg 92%
    08:00 +6°C° 1.4 mm 7 m/s 744 mmHg 93%
    09:00 +6°C° 2 mm 9 m/s 744 mmHg 91%
    10:00 +7°C° 2 mm 10 m/s 744 mmHg 89%
    11:00 +7°C° 2 mm 12 m/s 744 mmHg 87%
    12:00 +7°C° 0.9 mm 11 m/s 745 mmHg 87%
    13:00 +7°C° 0.9 mm 11 m/s 745 mmHg 88%
    14:00 +7°C° 0.9 mm 10 m/s 746 mmHg 89%
    15:00 +7°C° 1 mm 10 m/s 747 mmHg 88%
    16:00 +7°C° 1 mm 9 m/s 747 mmHg 86%
    17:00 +6°C° 1 mm 9 m/s 748 mmHg 85%
    18:00 +6°C° 0.5 mm 8 m/s 748 mmHg 85%
    19:00 +6°C° 0.5 mm 8 m/s 749 mmHg 86%
    20:00 +5°C° 0.5 mm 7 m/s 749 mmHg 87%
    21:00 +5°C° 0.5 mm 7 m/s 749 mmHg 88%
    22:00 +5°C° 0.5 mm 6 m/s 750 mmHg 89%
    23:00 +4°C° 0.5 mm 6 m/s 750 mmHg 90%

    Amanhã, 15 Novembro, Sexta-feira

    Tempo Temperatura Precipitação Vento Pressão Humidade
    00:00 +5°C° 0.7 mm 6 m/s 750 mmHg 90%
    01:00 +5°C° 0.7 mm 6 m/s 750 mmHg 90%
    02:00 +5°C° 0.7 mm 7 m/s 750 mmHg 91%
    03:00 +5°C° 0.7 mm 7 m/s 750 mmHg 90%
    04:00 +5°C° 0.7 mm 7 m/s 751 mmHg 90%
    05:00 +5°C° 0.7 mm 7 m/s 751 mmHg 90%
    06:00 +5°C° 0.4 mm 6 m/s 751 mmHg 89%
    07:00 +5°C° 0.4 mm 6 m/s 751 mmHg 89%
    08:00 +5°C° 0.4 mm 6 m/s 751 mmHg 88%
    09:00 +5°C° 0.5 mm 6 m/s 751 mmHg 88%
    10:00 +7°C° 0.5 mm 6 m/s 751 mmHg 87%
    11:00 +6°C° 0.5 mm 7 m/s 751 mmHg 86%
    12:00 +7°C° 0.7 mm 6 m/s 751 mmHg 86%
    13:00 +7°C° 0.7 mm 6 m/s 751 mmHg 87%
    14:00 +7°C° 0.7 mm 6 m/s 751 mmHg 87%
    15:00 +5°C° 0.6 mm 6 m/s 751 mmHg 89%
    16:00 +5°C° 0.6 mm 6 m/s 751 mmHg 90%
    17:00 +4°C° 0.6 mm 6 m/s 752 mmHg 92%
    18:00 +5°C° 0.7 mm 5 m/s 752 mmHg 92%
    19:00 +6°C° 0.7 mm 5 m/s 753 mmHg 93%
    20:00 +6°C° 0.7 mm 5 m/s 753 mmHg 93%
    21:00 +5°C° 0.5 mm 4 m/s 753 mmHg 94%
    22:00 +5°C° 0.5 mm 4 m/s 753 mmHg 94%
    23:00 +5°C° 0.5 mm 4 m/s 754 mmHg 95%

    Depois de amanhã, 16 Novembro, Sábado

    Tempo Temperatura Precipitação Vento Pressão Humidade
    00:00 +5°C° 0.4 mm 3 m/s 754 mmHg 95%
    01:00 +7°C° 0.4 mm 3 m/s 754 mmHg 95%
    02:00 +7°C° 0.4 mm 3 m/s 754 mmHg 95%
    03:00 +7°C° 0.3 mm 3 m/s 754 mmHg 95%
    04:00 +7°C° 0.3 mm 3 m/s 754 mmHg 95%
    05:00 +8°C° 0.3 mm 3 m/s 754 mmHg 95%
    06:00 +8°C° 0.3 mm 3 m/s 755 mmHg 95%
    07:00 +8°C° 0.3 mm 3 m/s 755 mmHg 94%
    08:00 +9°C° 0.3 mm 3 m/s 756 mmHg 94%
    09:00 +9°C° 0.3 mm 3 m/s 756 mmHg 91%
    10:00 +10°C° 0.3 mm 3 m/s 756 mmHg 89%
    11:00 +10°C° 0.3 mm 3 m/s 756 mmHg 86%
    12:00 +10°C° 0.1 mm 3 m/s 756 mmHg 86%
    13:00 +10°C° 0.1 mm 3 m/s 755 mmHg 85%
    14:00 +10°C° 0.1 mm 3 m/s 755 mmHg 85%
    15:00 +9°C° 0.1 mm 3 m/s 755 mmHg 88%
    16:00 +8°C° 0.1 mm 3 m/s 755 mmHg 91%
    17:00 +6°C° 0.1 mm 2 m/s 755 mmHg 94%
    18:00 +7°C° 0 mm 2 m/s 755 mmHg 93%
    19:00 +7°C° 0 mm 3 m/s 755 mmHg 92%
    20:00 +7°C° 0 mm 3 m/s 755 mmHg 91%
    21:00 +7°C° 0.1 mm 3 m/s 754 mmHg 92%
    22:00 +8°C° 0.1 mm 3 m/s 754 mmHg 93%
    23:00 +8°C° 0.1 mm 3 m/s 754 mmHg 94%

    17 Novembro, Domingo

    Tempo Temperatura Precipitação Vento Pressão Humidade
    00:00 +8°C° 0.4 mm 3 m/s 753 mmHg 95%
    01:00 +7°C° 0.4 mm 4 m/s 753 mmHg 95%
    02:00 +7°C° 0.4 mm 4 m/s 752 mmHg 96%
    03:00 +8°C° 0.3 mm 4 m/s 752 mmHg 96%
    04:00 +8°C° 0.3 mm 4 m/s 752 mmHg 96%
    05:00 +10°C° 0.3 mm 4 m/s 752 mmHg 96%
    06:00 +9°C° 0.2 mm 5 m/s 752 mmHg 95%
    07:00 +9°C° 0.2 mm 5 m/s 752 mmHg 94%
    08:00 +9°C° 0.2 mm 5 m/s 752 mmHg 93%
    09:00 +9°C° 0.2 mm 5 m/s 752 mmHg 91%
    10:00 +10°C° 0.2 mm 5 m/s 752 mmHg 88%
    11:00 +10°C° 0.2 mm 6 m/s 753 mmHg 86%
    12:00 +10°C° 0.5 mm 6 m/s 753 mmHg 88%
    13:00 +10°C° 0.5 mm 6 m/s 753 mmHg 89%
    14:00 +10°C° 0.5 mm 6 m/s 753 mmHg 90%
    15:00 +9°C° 0.5 mm 5 m/s 753 mmHg 92%
    16:00 +10°C° 0.5 mm 4 m/s 754 mmHg 94%
    17:00 +9°C° 0.5 mm 3 m/s 754 mmHg 95%
    18:00 +8°C° 0.3 mm 3 m/s 754 mmHg 96%
    19:00 +8°C° 0.3 mm 2 m/s 755 mmHg 96%
    20:00 +7°C° 0.3 mm 2 m/s 755 mmHg 96%
    21:00 +7°C° 0.1 mm 2 m/s 755 mmHg 96%
    22:00 +7°C° 0.1 mm 2 m/s 755 mmHg 96%
    23:00 +7°C° 0.1 mm 2 m/s 755 mmHg 95%

    18 Novembro, Segunda-feira

    Tempo Temperatura Precipitação Vento Pressão Humidade
    00:00 +7°C° 0.1 mm 2 m/s 755 mmHg 95%
    01:00 +7°C° 0.1 mm 2 m/s 755 mmHg 95%
    02:00 +8°C° 0.1 mm 2 m/s 755 mmHg 95%
    03:00 +8°C° 0.2 mm 2 m/s 755 mmHg 95%
    04:00 +8°C° 0.2 mm 2 m/s 755 mmHg 96%
    05:00 +8°C° 0.2 mm 2 m/s 756 mmHg 96%
    06:00 +8°C° 0.1 mm 2 m/s 756 mmHg 95%
    07:00 +8°C° 0.1 mm 2 m/s 756 mmHg 94%
    08:00 +9°C° 0.1 mm 2 m/s 756 mmHg 94%
    09:00 +10°C° 0.1 mm 2 m/s 756 mmHg 89%
    10:00 +10°C° 0.1 mm 2 m/s 756 mmHg 85%
    11:00 +12°C° 0.1 mm 2 m/s 756 mmHg 81%
    12:00 +12°C° 0 mm 1 m/s 756 mmHg 77%
    13:00 +12°C° 0 mm 1 m/s 756 mmHg 74%
    14:00 +12°C° 0 mm 1 m/s 755 mmHg 71%
    15:00 +11°C° 0 mm 1 m/s 755 mmHg 76%
    16:00 +9°C° 0 mm 2 m/s 755 mmHg 82%
    17:00 +7°C° 0 mm 2 m/s 755 mmHg 88%
    18:00 +7°C° 0 mm 2 m/s 755 mmHg 88%
    19:00 +7°C° 0 mm 2 m/s 755 mmHg 88%
    20:00 +7°C° 0 mm 3 m/s 755 mmHg 88%
    21:00 +7°C° 0.1 mm 3 m/s 754 mmHg 86%
    22:00 +7°C° 0.1 mm 4 m/s 754 mmHg 85%
    23:00 +7°C° 0.1 mm 4 m/s 754 mmHg 83%

    19 Novembro, Terça-feira

    Tempo Temperatura Precipitação Vento Pressão Humidade
    00:00 +7°C° 0.6 mm 5 m/s 753 mmHg 86%
    01:00 +7°C° 0.6 mm 5 m/s 752 mmHg 89%
    02:00 +8°C° 0.6 mm 6 m/s 752 mmHg 92%
    03:00 +8°C° 0.2 mm 6 m/s 751 mmHg 91%
    04:00 +8°C° 0.2 mm 6 m/s 751 mmHg 91%
    05:00 +8°C° 0.2 mm 6 m/s 751 mmHg 91%
    06:00 +8°C° 0.3 mm 5 m/s 751 mmHg 92%
    07:00 +8°C° 0.3 mm 4 m/s 751 mmHg 92%
    08:00 +9°C° 0.3 mm 3 m/s 751 mmHg 93%
    09:00 +10°C° 0.3 mm 3 m/s 751 mmHg 92%
    10:00 +10°C° 0.3 mm 3 m/s 750 mmHg 91%
    11:00 +11°C° 0.3 mm 3 m/s 750 mmHg 90%
    12:00 +12°C° 0.3 mm 2 m/s 749 mmHg 92%
    13:00 +12°C° 0.3 mm 2 m/s 749 mmHg 93%
    14:00 +12°C° 0.3 mm 2 m/s 748 mmHg 94%
    15:00 +11°C° 0.2 mm 3 m/s 748 mmHg 94%
    16:00 +10°C° 0.2 mm 4 m/s 748 mmHg 94%
    17:00 +10°C° 0.2 mm 4 m/s 748 mmHg 94%
    18:00 +9°C° 0.1 mm 5 m/s 748 mmHg 94%
    19:00 +8°C° 0.1 mm 5 m/s 747 mmHg 93%
    20:00 +8°C° 0.1 mm 5 m/s 747 mmHg 93%
    21:00 +8°C° 0 mm 6 m/s 747 mmHg 91%
    22:00 +8°C° 0 mm 7 m/s 746 mmHg 90%
    23:00 +9°C° 0 mm 7 m/s 746 mmHg 88%
    Mostrar mais